Zurück zum Katalog

STARLINK-36421

AktivKommunikationVLEO
NORAD 67464·PAYLOAD·🇺🇸 United States

Gestartet Jan 14, 2026 von Cape Canaveral Space Force Station

Loading…

Nächste Überflüge (nächste 24 Stunden)

TLE

AktuellSource: CelesTrak SupGP

Epoche: Sep 14, 2026, 23:15 UTC

1 67464C 26008V   26257.96923611 -.00006381  00000+0 -23109-3 0  2576
2 67464  42.9995 215.9419 0001349 262.4828 107.4699 15.27584266    10

Verfolge STARLINK-36421 in Echtzeit mit AllMySat

Download on the App Store